Погода в Твери

Погода в Твери : погода сейчас, прогноз погоды и архив. Всё, что Вы хотите узнать о погоде в Твери!

Хотите узнать прогноз погоды в Твери? Тогда Вам сюда: Погода в Твери

Поиск расширенной информации на нашем сайте:

Другие новости

Новости СМИ2

Главная страница сайта

Новости сайта

03.07.2017

Напоминаем, что на нашем специализированном сайте Метеоцентр.Азия вы можете получить высокодетализированные автоматические прогнозы погоды по пунктам России, СНГ и мира в авиационном формате (включающие направление и скорость ветра, видимость, явления погоды, количество и форму облачности, нижнюю и верхнюю границу облачности).


Погода в Твери - сегодня

Время (UTC), дата Ветер
(°,м/с) 
Видим.   Явления Облачность Т
(°С)
Тd
(°С)
f(%) Тe
(°С)
Pmin
(гПа)
dP
(гПа)
Po
(мм)
O2
(г/м3)
Тmin Tmax R s Состояние
почвы
15 13.01.18 310 (СЗ) 10 км    10/10 360 м 
[St]
-8.1 -10.2 85 -8  1043.6  -0.3  768  320           
18 13.01.18 300 (СЗ) 10 км  слаб. снег  10/10 360 м 
[Frnb|Ns]
-8.1 -10.3 84 -8  1043.1  -0.5  768  320    -7.6  0.0     
21 13.01.18 280 (З) 10 км  {снег}  9/9 630 м 
[Sc]
-8.3 -10.1 87 -8  1042.8  -0.4  768  320           
00 14.01.18 290 (З) 10 км  {снег}  10/10 400 м 
[St]
-8 -9.8 87 -8  1042.4  -0.3  767  320           
03 14.01.18 310 (СЗ) 10 км  {снег}  10/10 330 м 
[St]
-7.7 -9.5 87 -7  1042  -0.4  767  319  -8.7    0.0     
06 14.01.18 тихо ()   10 км  {снег}  10/10 240 м 
[St]
-7.4 -8.8 90 -7  1041.9  -0.1  767  319  -8.7    0.0  равномерный
сухой снег
100% 
09 14.01.18 340 (С) 10 км    10/10 240 м 
[St]
-6.6 -8 90 -6  1042.1  0.3  767  318           
12 14.01.18 тихо ()   10 км    10/10 270 м 
[St]
-5.7 -7.7 86 -6  1042  -0.1  767  317           
15 14.01.18 тихо ()   10 км    10/10 270 м 
[St]
-5.7 -7.5 87 -6  1041.7  -0.3  767  316           
18 14.01.18 тихо ()   10 км    10/10 240 м 
[St]
-5.6 -7 90 -6  1041.2  -0.5  767  316    -5.6       
21 14.01.18 тихо ()   10 км    10/10 210 м 
[St]
-5.5 -6.6 92 -6  1041.3  0.2  767  316           
00 15.01.18 тихо ()   10 км    10/10 150 м 
[St]
-5.3 -6.1 94 -5  1040.6  -0.7  766  316           
03 15.01.18 тихо ()   10 км    10/10 150 м 
[St]
-5.1 -5.8 95 -5  1039.4  -1.1  765  315  -5.7         
06 15.01.18 070 (В) 10 км    10/10 210 м 
[St]
-4.9 -5.8 93 -4  1038.8  -0.6  765  314  -5.7      равномерный
сухой снег
100% 
09 15.01.18 100 (В) 4000 м  слаб. снег  10/10 240 м 
[Frnb|Ns]
-4.1 -5.4 91 -4  1038.1  -0.6  764  313           
12 15.01.18 100 (В) 10 км  слаб. снег  10/10 270 м 
[Frnb|Ns]
-3.6 -5.1 89 -5  1036.3  -1.7  763  312           
15 15.01.18 130 (ЮВ) 10 км  слаб. снег  10/10 300 м 
[Frnb|Ns]
-4 -5.2 91 -5  1035.1  -1.2  762  312      0.5     
18 15.01.18 120 (ЮВ) 10 км  слаб. снег  10/10 300 м 
[Frnb|Ns]
-4.1 -5.3 91 -5  1033.7  -1.4  761  312    -3.6  0.5     
21 15.01.18 160 (Ю) 10 км  слаб. снег  10/10 420 м 
[Frnb|Ns]
-4.2 -6 87 -5  1032.9  -0.8  761  312           
00 16.01.18 190 (Ю) 10 км  {снег}  9/9 450 м 
[Sc]
-4.4 -7.3 80 -4  1032.1  -0.8  760  312           
03 16.01.18 160 (Ю) 10 км    9/9 450 м 
[Sc]
-5.5 -8.5 79 -9  1030.9  -1.3  759  313  -5.5    0.2     
06 16.01.18 180 (Ю) 10 км    9/9 500 м 
[Sc]
-6.8 -10.1 77 -6  1030.1  -0.8  758  314  -6.8    0.2  равномерный
сухой снег
100% 
09 16.01.18 140 (ЮВ) 10 км    9/9 450 м 
[Sc]
-7.6 -10.5 80 -11  1029.6  -0.5  758  315           
12 16.01.18 150 (ЮВ) 10 км    8/8 450 м 
[Sc]
-8.3 -11.5 78 -12  1027.8  -1.8  757  315           
15 16.01.18 110 (В) 10 км    6/0 средняя 
[Ac trans]
-10.8 -12.3 89 -14  1025.5  -2.5  755  318           
Время (UTC), дата Ветер
(°,м/с) 
Видим.   Явления Облачность Т
(°С)
Тd
(°С)
f(%) Тe
(°С)
Pmin
(гПа)
dP
(гПа)
Po
(мм)
O2
(г/м3)
Тmin Tmax R s Состояние
почвы

Для получения пояснительной информации подведите курсор к названию столбца.

ПОГОДА в Твери - архив

Всё, что Вы хотите узнать о погоде в Твери - удобно и подробно!

Выберите нужную дату (начиная с 1 января 2015* года) и нажмите кнопку "Найти".
Будут отображены архивные сводки погоды по пункту Тверь, начиная с указанной даты.


Отображать данные в формате CSV (для использования в таблицах Excel)


Внимание! Наш архив погоды предназначен исключительно для личного некоммерческого использования в познавательных целях. Если Вам необходимы официальные справки о состоянии погоды (для производственных, юридических, коммерческих и т.п. целей), обращайтесь в органы Росгидромета.

*Примечание: данная дата относится к архиву по метеостанциям СССР (Россия, СНГ, Балтия).
Архив по метеостанциям Зарубежной Европы и Азии (кроме Китая) хранится 10 дней, по другим регионам земного шара (Китай, Африка, Америка, Австралия, Океания) - 1 день.

Тверь - район местоположения метеостанции


Название, широта, долгота, высота метеостанции:
Тверь (город) 56.8°ш. 35.7°д. 137 м над ур. моря [Российская Федерация]

Дополнительная информация

В oтличие oт бoльшинства пoгoдных сайтoв мы публикуем пoдрoбную метеoинфoрмацию в детальнoм прoфессиoнальнoм фoрмате.

Характеристики температуры и влажнoсти вoздуха измеряются на высoте 2 м в тени вдали oт зданий и деревьев.
Скoрoсть ветра измеряется на высoте 10 м (на урoвне рoста челoвека скoрoсть ветра ниже в 1.5-2 раза). Если метеoстанция нахoдится в гoрoде или в лесу, тo скoрoсть ветра занижена на 2-4 м/с пo сравнению с oткрытым местoм. Скoрoсть ветра над акватoриями крупных рек и oзёр, а также на вершинах хoлмoв на 2-5 м/с выше, чем в oбычных услoвиях.
Атмoсфернoе давление в разных тoчках местнoсти мoжет значительнo oтличаться oт давления на метеoстанции, в зависимoсти oт услoвий рельефа (при пoдъёме на 10 м давление пoнижается примернo на 1 мм рт.ст.).